Location: Stockholm
(59.3293°N, 18.0686°E)
Time: 18:15:55
(UTC+01:00)

OTV 5 (USA 277) - Visible Passes

Search period start: 20 November 2018 00:00
Search period end: 30 November 2018 00:00
Orbit: 339 x 348 km, 54.5° (Epoch: 14 November)

Date Brightness Start Highest point End Pass type
(mag) Time Alt. Az. Time Alt. Az. Time Alt. Az.
26 Nov ? 06:55:53 10° S 06:57:29 14° SSE 06:59:06 10° ESE visible
28 Nov ? 06:08:03 10° S 06:09:36 14° SSE 06:11:10 10° ESE visible
29 Nov ? 06:30:29 10° SSW 06:32:44 21° SSE 06:35:00 10° ESE visible
